This demonstration page uses our WeatherBlox Daily Observations layout. Learn more.

39.92423, -83.80882

Hourly Observations for September 11, 2018

Temp ( °F °C ) Dew Point ( °F °C ) Humidity (%) Winds ( mph kmh ) Pressure ( in mb ) Visibility ( mi km ) Precip ( " mm )
12:56 am 00:56 Cloudy 60 15.6 60 15.6 100 100 Calm 30.1 1019 10 16.0934 0 0
1:56 am 01:56 Cloudy 60 15.6 60 15.6 100 100 Calm 30.1 1019 9 14.48406 0 0
2:56 am 02:56 Cloudy 60 15.6 60 15.6 100 100 Calm 30.11 1020 7 11.26538 0 0
3:56 am 03:56 Cloudy 60 15.6 60 15.6 100 100 Calm 30.11 1020 10 16.0934 0 0
4:56 am 04:56 Cloudy 60 15.6 60 15.6 100 100 Calm 30.11 1020 10 16.0934 0 0
5:56 am 05:56 Cloudy 60 15.6 60 15.6 100 100 Calm 30.13 1020 7 11.26538 0 0
6:56 am 06:56 Cloudy 60 15.6 60 15.6 100 100 Calm 30.14 1021 8 12.87472 0 0
7:56 am 07:56 Cloudy with Mist and Fog 60 15.6 60 15.6 100 100 Calm 30.16 1021 6 9.65604 0 0
8:56 am 08:56 Cloudy 62 16.7 61 16.1 96 96 NNE 7 11 30.17 1022 10 16.0934 0 0
9:56 am 09:56 Cloudy 64 17.8 60 15.6 87 87 NNE 10 17 30.18 1022 10 16.0934 0 0
10:38 am 10:38 Cloudy 64 18 59 15 83 83 NNE 6 9 30.21 1023 10 16.0934 0 0
10:56 am 10:56 Cloudy 66 18.9 59 15 78 78 N 7 11 30.19 1022 10 16.0934 0 0
11:23 am 11:23 Cloudy 64 18 59 15 83 83 N 8 13 30.21 1023 10 16.0934 0 0
11:32 am 11:32 Cloudy 64 18 59 15 83 83 NNE 6 9 30.21 1023 10 16.0934 0 0
11:56 am 11:56 Cloudy 66 18.9 58 14.4 75 75 NNE 6 9 30.19 1023 10 16.0934 0 0
12:56 pm 12:56 Cloudy 68 20 58 14.4 70 70 NE 5 7 30.19 1022 10 16.0934 0 0
1:47 pm 13:47 Cloudy 68 20 57 14 69 69 N 5 7 30.15 1021 10 16.0934 0 0
1:56 pm 13:56 Cloudy 68 20 58 14.4 70 70 Calm 30.19 1022 10 16.0934 0 0
2:14 pm 14:14 Cloudy 68 20 57 14 69 69 VRB 3 6 30.15 1021 10 16.0934 0 0
2:56 pm 14:56 Cloudy 69 20.6 58 14.4 68 68 N 6 9 30.17 1022 10 16.0934 0 0
3:56 pm 15:56 Cloudy 69 20.6 58 14.4 68 68 VRB 3 6 30.16 1022 10 16.0934 0 0
4:56 pm 16:56 Cloudy 68 20 59 15 73 73 ESE 8 13 30.16 1021 10 16.0934 0 0
5:56 pm 17:56 Cloudy 67 19.4 60 15.6 79 79 ESE 6 9 30.15 1021 10 16.0934 0 0
6:56 pm 18:56 Cloudy 66 18.9 60 15.6 81 81 SSE 3 6 30.16 1021 10 16.0934 0 0
7:56 pm 19:56 Cloudy 65 18.3 61 16.1 87 87 Calm 30.15 1021 10 16.0934 0 0
8:56 pm 20:56 Cloudy 64 17.8 62 16.7 93 93 ESE 5 7 30.17 1022 10 16.0934 0 0
9:56 pm 21:56 Cloudy 64 17.8 61 16.1 90 90 SE 5 7 30.18 1022 10 16.0934 0 0
10:56 pm 22:56 Cloudy 63 17.2 60 15.6 90 90 E 3 6 30.18 1022 10 16.0934 0 0
11:56 pm 23:56 Cloudy 63 17.2 60 15.6 90 90 E 3 6 30.17 1022 10 16.0934 0 0

Powered by AerisWeather